TimeMST,TemperatureF,Dew PointF,Humidity,Sea Level PressureIn,VisibilityMPH,Wind Direction,Wind SpeedMPH,Gust SpeedMPH,PrecipitationIn,Events,Conditions,WindDirDegrees,DateUTC
12:15 AM,57.2,24.8,29,30.36,10.0,South,4.6,-,N/A,,Clear,180,2012-10-04 07:15:00
12:35 AM,55.4,26.6,33,30.36,10.0,South,8.1,-,N/A,,Clear,170,2012-10-04 07:35:00
12:55 AM,57.2,26.6,31,30.36,10.0,SSE,6.9,-,N/A,,Clear,160,2012-10-04 07:55:00
1:15 AM,53.6,26.6,35,30.36,10.0,SSE,6.9,-,N/A,,Clear,160,2012-10-04 08:15:00
1:35 AM,55.4,26.6,33,30.36,10.0,South,3.5,-,N/A,,Clear,190,2012-10-04 08:35:00
1:55 AM,57.2,26.6,31,30.36,10.0,SSE,4.6,-,N/A,,Clear,160,2012-10-04 08:55:00
2:35 AM,55.4,26.6,33,30.36,10.0,SSE,3.5,-,N/A,,Clear,160,2012-10-04 09:35:00
2:55 AM,55.4,26.6,33,30.36,10.0,SSE,4.6,-,N/A,,Clear,160,2012-10-04 09:55:00
3:15 AM,55.4,26.6,33,30.36,10.0,SSE,5.8,-,N/A,,Clear,160,2012-10-04 10:15:00
3:35 AM,53.6,26.6,35,30.36,10.0,SSE,5.8,-,N/A,,Clear,160,2012-10-04 10:35:00
3:55 AM,50.0,26.6,40,30.36,10.0,SSE,5.8,-,N/A,,Clear,150,2012-10-04 10:55:00
4:15 AM,50.0,26.6,40,30.36,10.0,SSE,4.6,-,N/A,,Clear,160,2012-10-04 11:15:00
4:35 AM,48.2,26.6,43,30.36,10.0,SSE,6.9,-,N/A,,Clear,160,2012-10-04 11:35:00
4:55 AM,50.0,26.6,40,30.36,10.0,SSE,8.1,-,N/A,,Clear,160,2012-10-04 11:55:00
5:15 AM,48.2,26.6,43,30.36,10.0,SSE,4.6,-,N/A,,Clear,160,2012-10-04 12:15:00
5:35 AM,48.2,26.6,43,30.36,10.0,SSE,4.6,-,N/A,,Clear,150,2012-10-04 12:35:00
5:55 AM,50.0,26.6,40,30.37,10.0,SSE,4.6,-,N/A,,Clear,150,2012-10-04 12:55:00
6:15 AM,46.4,26.6,46,30.37,10.0,SSE,5.8,-,N/A,,Clear,160,2012-10-04 13:15:00
6:35 AM,48.2,26.6,43,30.37,10.0,SSE,4.6,-,N/A,,Clear,150,2012-10-04 13:35:00
7:15 AM,50.0,26.6,40,30.38,10.0,SSE,5.8,-,N/A,,Clear,160,2012-10-04 14:15:00
7:35 AM,57.2,26.6,31,30.38,10.0,Calm,Calm,-,N/A,,Clear,0,2012-10-04 14:35:00
7:55 AM,60.8,26.6,27,30.39,10.0,SW,6.9,-,N/A,,Clear,220,2012-10-04 14:55:00
8:15 AM,64.4,32.0,30,30.39,10.0,SSW,9.2,-,N/A,,Clear,200,2012-10-04 15:15:00
8:35 AM,64.4,32.0,30,30.39,10.0,SSW,11.5,17.3,N/A,,Clear,210,2012-10-04 15:35:00
9:15 AM,66.2,32.0,28,30.39,10.0,SW,12.7,20.7,N/A,,Clear,220,2012-10-04 16:15:00
9:35 AM,66.2,32.0,28,30.40,10.0,SSW,17.3,24.2,N/A,,Clear,210,2012-10-04 16:35:00
9:55 AM,68.0,30.2,24,30.40,10.0,SSW,13.8,20.7,N/A,,Clear,210,2012-10-04 16:55:00
10:15 AM,69.8,28.4,21,30.40,10.0,SSW,10.4,23.0,N/A,,Clear,210,2012-10-04 17:15:00
10:35 AM,69.8,28.4,21,30.40,10.0,South,18.4,23.0,N/A,,Clear,190,2012-10-04 17:35:00
10:55 AM,69.8,28.4,21,30.39,10.0,SSW,18.4,28.8,N/A,,Clear,200,2012-10-04 17:55:00
11:15 AM,69.8,26.6,20,30.40,10.0,SSW,13.8,29.9,N/A,,Clear,210,2012-10-04 18:15:00
11:35 AM,71.6,26.6,19,30.40,10.0,SW,16.1,26.5,N/A,,Clear,230,2012-10-04 18:35:00
11:55 AM,71.6,26.6,19,30.39,10.0,SW,20.7,27.6,N/A,,Clear,230,2012-10-04 18:55:00
12:15 PM,71.6,26.6,19,30.38,10.0,SW,15.0,26.5,N/A,,Clear,220,2012-10-04 19:15:00
12:35 PM,71.6,24.8,17,30.38,10.0,SW,17.3,26.5,N/A,,Clear,230,2012-10-04 19:35:00
12:55 PM,71.6,23.0,16,30.36,10.0,SW,16.1,28.8,N/A,,Clear,220,2012-10-04 19:55:00
1:15 PM,73.4,24.8,16,30.35,10.0,SSW,18.4,27.6,N/A,,Clear,200,2012-10-04 20:15:00
1:35 PM,73.4,23.0,15,30.34,10.0,SW,18.4,29.9,N/A,,Clear,220,2012-10-04 20:35:00
1:55 PM,73.4,23.0,15,30.34,10.0,SSW,15.0,28.8,N/A,,Clear,210,2012-10-04 20:55:00
2:15 PM,73.4,23.0,15,30.33,10.0,WSW,19.6,25.3,N/A,,Clear,240,2012-10-04 21:15:00
2:35 PM,73.4,19.4,13,30.33,10.0,SW,17.3,27.6,N/A,,Clear,220,2012-10-04 21:35:00
2:55 PM,73.4,23.0,15,30.32,10.0,WSW,18.4,26.5,N/A,,Clear,240,2012-10-04 21:55:00
3:15 PM,73.4,23.0,15,30.32,10.0,SW,21.9,28.8,N/A,,Clear,220,2012-10-04 22:15:00
3:35 PM,71.6,21.2,15,30.32,10.0,SSW,20.7,28.8,N/A,,Clear,200,2012-10-04 22:35:00
3:55 PM,71.6,23.0,16,30.31,10.0,SSW,18.4,26.5,N/A,,Clear,210,2012-10-04 22:55:00
4:15 PM,71.6,23.0,16,30.31,10.0,SSW,17.3,25.3,N/A,,Clear,200,2012-10-04 23:15:00
4:35 PM,71.6,24.8,17,30.31,10.0,SW,17.3,31.1,N/A,,Clear,220,2012-10-04 23:35:00
4:55 PM,69.8,24.8,18,30.31,10.0,SSW,16.1,28.8,N/A,,Clear,200,2012-10-04 23:55:00
5:15 PM,68.0,24.8,20,30.31,10.0,SSW,18.4,25.3,N/A,,Clear,200,2012-10-05 00:15:00
5:55 PM,66.2,24.8,21,30.32,10.0,SSW,17.3,23.0,N/A,,Clear,210,2012-10-05 00:55:00
6:15 PM,64.4,24.8,22,30.32,10.0,SSW,13.8,20.7,N/A,,Clear,210,2012-10-05 01:15:00
6:35 PM,64.4,24.8,22,30.33,10.0,SSW,13.8,-,N/A,,Clear,210,2012-10-05 01:35:00
7:15 PM,62.6,26.6,26,30.33,10.0,SSW,12.7,18.4,N/A,,Clear,210,2012-10-05 02:15:00
7:35 PM,62.6,26.6,26,30.34,10.0,SSW,8.1,16.1,N/A,,Clear,210,2012-10-05 02:35:00
8:15 PM,59.0,26.6,29,30.34,10.0,SSW,10.4,-,N/A,,Clear,200,2012-10-05 03:15:00
8:35 PM,57.2,26.6,31,30.34,10.0,SSW,10.4,-,N/A,,Clear,200,2012-10-05 03:35:00
8:55 PM,57.2,28.4,33,30.34,10.0,SSW,10.4,-,N/A,,Clear,200,2012-10-05 03:55:00
9:15 PM,59.0,28.4,31,30.34,10.0,SSW,12.7,18.4,N/A,,Clear,200,2012-10-05 04:15:00
9:35 PM,59.0,28.4,31,30.34,10.0,SSW,9.2,18.4,N/A,,Clear,210,2012-10-05 04:35:00
9:55 PM,59.0,26.6,29,30.34,10.0,SSW,9.2,17.3,N/A,,Clear,200,2012-10-05 04:55:00
10:15 PM,57.2,26.6,31,30.35,10.0,SSW,8.1,-,N/A,,Clear,200,2012-10-05 05:15:00
10:35 PM,59.0,28.4,31,30.35,10.0,SSW,9.2,17.3,N/A,,Clear,200,2012-10-05 05:35:00
11:15 PM,57.2,28.4,33,30.35,10.0,SSW,6.9,-,N/A,,Clear,210,2012-10-05 06:15:00
11:35 PM,57.2,28.4,33,30.35,10.0,SSW,6.9,-,N/A,,Clear,200,2012-10-05 06:35:00
11:55 PM,55.4,28.4,36,30.35,10.0,South,5.8,-,N/A,,Clear,190,2012-10-05 06:55:00